Stündliche Wetter Cebulowka

Heute, 29 Oktober, Donnerstag

Zeit Temperatur Niederschläge Wind Luftdruck Luftfeuchtigkeit
00:00 +10°C° 0 mm 2 m/S 745 mmHg 88%
01:00 +10°C° 0 mm 3 m/S 745 mmHg 87%
02:00 +10°C° 0 mm 2 m/S 745 mmHg 85%
03:00 +10°C° 0 mm 2 m/S 744 mmHg 83%
04:00 +10°C° 0 mm 2 m/S 744 mmHg 81%
05:00 +9°C° 0 mm 2 m/S 744 mmHg 83%
06:00 +9°C° 0 mm 2 m/S 744 mmHg 85%
07:00 +8°C° 0 mm 3 m/S 744 mmHg 87%
08:00 +10°C° 0 mm 3 m/S 744 mmHg 81%
09:00 +11°C° 0 mm 4 m/S 744 mmHg 75%
10:00 +13°C° 0 mm 4 m/S 744 mmHg 69%
11:00 +13°C° 0 mm 4 m/S 744 mmHg 65%
12:00 +14°C° 0 mm 4 m/S 744 mmHg 61%
13:00 +14°C° 0 mm 5 m/S 744 mmHg 57%
14:00 +13°C° 0 mm 4 m/S 744 mmHg 63%
15:00 +12°C° 0 mm 4 m/S 744 mmHg 69%
16:00 +12°C° 0 mm 4 m/S 744 mmHg 75%
17:00 +11°C° 0 mm 4 m/S 744 mmHg 76%
18:00 +11°C° 0 mm 4 m/S 744 mmHg 77%
19:00 +11°C° 0 mm 4 m/S 745 mmHg 78%
20:00 +10°C° 0 mm 4 m/S 745 mmHg 77%
21:00 +8°C° 0 mm 4 m/S 745 mmHg 76%
22:00 +8°C° 0 mm 4 m/S 746 mmHg 76%
23:00 +7°C° 0 mm 4 m/S 746 mmHg 77%

Morgen, 30 Oktober, Freitag

Zeit Temperatur Niederschläge Wind Luftdruck Luftfeuchtigkeit
00:00 +6°C° 0 mm 4 m/S 746 mmHg 79%
01:00 +6°C° 0 mm 4 m/S 747 mmHg 80%
02:00 +5°C° 0 mm 4 m/S 747 mmHg 81%
03:00 +5°C° 0 mm 4 m/S 747 mmHg 83%
04:00 +5°C° 0 mm 4 m/S 747 mmHg 84%
05:00 +5°C° 0 mm 4 m/S 747 mmHg 85%
06:00 +5°C° 0 mm 4 m/S 747 mmHg 87%
07:00 +4°C° 0 mm 4 m/S 747 mmHg 88%
08:00 +6°C° 0 mm 4 m/S 747 mmHg 82%
09:00 +7°C° 0 mm 4 m/S 747 mmHg 77%
10:00 +8°C° 0 mm 4 m/S 747 mmHg 71%
11:00 +8°C° 0 mm 4 m/S 747 mmHg 67%
12:00 +10°C° 0 mm 4 m/S 747 mmHg 64%
13:00 +11°C° 0 mm 4 m/S 747 mmHg 60%
14:00 +10°C° 0.1 mm 3 m/S 746 mmHg 64%
15:00 +9°C° 0.1 mm 3 m/S 746 mmHg 69%
16:00 +9°C° 0.1 mm 3 m/S 746 mmHg 74%
17:00 +9°C° 0.4 mm 2 m/S 746 mmHg 79%
18:00 +8°C° 0.4 mm 2 m/S 745 mmHg 85%
19:00 +9°C° 0.4 mm 1 m/S 745 mmHg 91%
20:00 +9°C° 0.8 mm 1 m/S 745 mmHg 92%
21:00 +9°C° 0.8 mm 1 m/S 745 mmHg 94%
22:00 +9°C° 0.8 mm 1 m/S 745 mmHg 95%
23:00 +9°C° 0.3 mm 1 m/S 745 mmHg 95%

übermorgen, 31 Oktober, Samstag

Zeit Temperatur Niederschläge Wind Luftdruck Luftfeuchtigkeit
00:00 +9°C° 0.3 mm 1 m/S 745 mmHg 95%
01:00 +9°C° 0.3 mm 1 m/S 745 mmHg 95%
02:00 +8°C° 0 mm 1 m/S 746 mmHg 95%
03:00 +7°C° 0 mm 2 m/S 746 mmHg 95%
04:00 +6°C° 0 mm 2 m/S 747 mmHg 95%
05:00 +6°C° 0 mm 2 m/S 747 mmHg 95%
06:00 +5°C° 0 mm 2 m/S 748 mmHg 94%
07:00 +5°C° 0 mm 2 m/S 748 mmHg 93%
08:00 +6°C° 0 mm 2 m/S 749 mmHg 86%
09:00 +8°C° 0 mm 2 m/S 749 mmHg 80%
10:00 +9°C° 0 mm 3 m/S 750 mmHg 74%
11:00 +10°C° 0 mm 3 m/S 750 mmHg 73%
12:00 +10°C° 0 mm 3 m/S 750 mmHg 71%
13:00 +11°C° 0 mm 4 m/S 750 mmHg 70%
14:00 +10°C° 0.1 mm 3 m/S 750 mmHg 74%
15:00 +10°C° 0.1 mm 3 m/S 750 mmHg 78%
16:00 +9°C° 0.1 mm 2 m/S 750 mmHg 81%
17:00 +9°C° 0 mm 2 m/S 751 mmHg 83%
18:00 +8°C° 0 mm 2 m/S 751 mmHg 85%
19:00 +7°C° 0 mm 2 m/S 752 mmHg 87%
20:00 +6°C° 0 mm 2 m/S 752 mmHg 88%
21:00 +6°C° 0 mm 2 m/S 752 mmHg 88%
22:00 +6°C° 0 mm 2 m/S 752 mmHg 89%
23:00 +6°C° 0 mm 1 m/S 752 mmHg 90%

1 November, Sonntag

Zeit Temperatur Niederschläge Wind Luftdruck Luftfeuchtigkeit
00:00 +6°C° 0 mm 1 m/S 752 mmHg 91%
01:00 +6°C° 0 mm 1 m/S 752 mmHg 92%
02:00 +5°C° 0 mm 1 m/S 752 mmHg 92%
03:00 +5°C° 0 mm 1 m/S 752 mmHg 93%
04:00 +5°C° 0 mm 1 m/S 752 mmHg 93%
05:00 +5°C° 0 mm 1 m/S 752 mmHg 93%
06:00 +5°C° 0 mm 1 m/S 752 mmHg 94%
07:00 +5°C° 0 mm 1 m/S 752 mmHg 94%
08:00 +5°C° 0 mm 2 m/S 752 mmHg 88%
09:00 +6°C° 0 mm 2 m/S 752 mmHg 82%
10:00 +8°C° 0 mm 2 m/S 752 mmHg 76%
11:00 +8°C° 0 mm 2 m/S 752 mmHg 72%
12:00 +9°C° 0 mm 3 m/S 752 mmHg 69%
13:00 +10°C° 0 mm 3 m/S 751 mmHg 65%
14:00 +9°C° 0 mm 3 m/S 751 mmHg 69%
15:00 +8°C° 0 mm 2 m/S 751 mmHg 73%
16:00 +7°C° 0 mm 2 m/S 751 mmHg 77%
17:00 +7°C° 0 mm 2 m/S 751 mmHg 79%
18:00 +6°C° 0 mm 2 m/S 751 mmHg 82%
19:00 +6°C° 0 mm 2 m/S 750 mmHg 84%
20:00 +5°C° 0 mm 2 m/S 750 mmHg 85%
21:00 +4°C° 0 mm 3 m/S 750 mmHg 87%
22:00 +4°C° 0 mm 3 m/S 750 mmHg 88%
23:00 +3°C° 0 mm 3 m/S 750 mmHg 88%

2 November, Montag

Zeit Temperatur Niederschläge Wind Luftdruck Luftfeuchtigkeit
00:00 +3°C° 0 mm 3 m/S 750 mmHg 89%
01:00 +3°C° 0 mm 3 m/S 750 mmHg 90%
02:00 +3°C° 0 mm 3 m/S 749 mmHg 90%
03:00 +3°C° 0 mm 3 m/S 749 mmHg 90%
04:00 +3°C° 0 mm 3 m/S 749 mmHg 90%
05:00 +3°C° 0 mm 3 m/S 749 mmHg 90%
06:00 +3°C° 0 mm 3 m/S 749 mmHg 89%
07:00 +3°C° 0 mm 3 m/S 749 mmHg 89%
08:00 +4°C° 0 mm 3 m/S 749 mmHg 83%
09:00 +7°C° 0 mm 3 m/S 749 mmHg 77%
10:00 +8°C° 0 mm 3 m/S 749 mmHg 70%
11:00 +8°C° 0 mm 4 m/S 749 mmHg 68%
12:00 +10°C° 0 mm 4 m/S 749 mmHg 65%
13:00 +11°C° 0 mm 4 m/S 749 mmHg 62%
14:00 +10°C° 0 mm 4 m/S 748 mmHg 68%
15:00 +9°C° 0 mm 3 m/S 748 mmHg 73%
16:00 +8°C° 0 mm 3 m/S 748 mmHg 78%
17:00 +8°C° 0 mm 3 m/S 748 mmHg 81%
18:00 +7°C° 0 mm 3 m/S 748 mmHg 84%
19:00 +6°C° 0 mm 4 m/S 749 mmHg 87%
20:00 +5°C° 0 mm 4 m/S 749 mmHg 87%
21:00 +5°C° 0 mm 4 m/S 749 mmHg 88%
22:00 +5°C° 0 mm 4 m/S 749 mmHg 88%
23:00 +5°C° 0 mm 4 m/S 749 mmHg 90%

3 November, Dienstag

Zeit Temperatur Niederschläge Wind Luftdruck Luftfeuchtigkeit
00:00 +4°C° 0 mm 3 m/S 748 mmHg 91%
01:00 +4°C° 0 mm 3 m/S 748 mmHg 92%
02:00 +4°C° 0 mm 3 m/S 748 mmHg 93%
03:00 +4°C° 0 mm 3 m/S 748 mmHg 93%
04:00 +4°C° 0 mm 3 m/S 748 mmHg 94%
05:00 +4°C° 0 mm 3 m/S 749 mmHg 94%
06:00 +4°C° 0 mm 3 m/S 749 mmHg 94%
07:00 +4°C° 0 mm 3 m/S 749 mmHg 94%
08:00 +5°C° 0 mm 4 m/S 749 mmHg 88%
09:00 +7°C° 0 mm 4 m/S 749 mmHg 82%
10:00 +9°C° 0 mm 5 m/S 749 mmHg 75%
11:00 +9°C° 0 mm 5 m/S 749 mmHg 72%
12:00 +11°C° 0 mm 4 m/S 749 mmHg 69%
13:00 +12°C° 0 mm 4 m/S 749 mmHg 66%
14:00 +11°C° 0 mm 4 m/S 749 mmHg 71%
15:00 +10°C° 0 mm 4 m/S 749 mmHg 77%
16:00 +8°C° 0 mm 4 m/S 749 mmHg 83%
17:00 +8°C° 0 mm 4 m/S 750 mmHg 83%
18:00 +8°C° 0 mm 3 m/S 750 mmHg 83%
19:00 +7°C° 0 mm 3 m/S 750 mmHg 83%
20:00 +7°C° 0 mm 3 m/S 750 mmHg 86%
21:00 +7°C° 0 mm 3 m/S 751 mmHg 88%
22:00 +5°C° 0 mm 3 m/S 751 mmHg 90%
23:00 +5°C° 0 mm 3 m/S 751 mmHg 91%
Mehr zeigen